Probability
0 0 0 0 0 0 0 0 0 0 0 0 0 0 1 2 3 3 2 1 1 2 4 4 6 12 20 23 21 17 14 11 8 9 8 6 6 8 9 11 10 8 8
0 0 0 0 0 0 0 0 0 0 0 0 0 0 0 1 2 2 1 0 0 1 3 4 5 8 13 16 16 14 12 11 11 11 10 7 5 7 10 13 11 9 10
0 0 0 0 0 0 0 0 0 0 0 0 0 0 0 0 0 0 0 0 0 1 2 3 3 4 5 7 9 11 11 11 12 12 10 7 6 7 11 12 10 8 9
0 0 0 0 0 0 0 0 0 0 0 0 0 0 0 0 0 0 0 0 0 0 1 1 2 2 2 2 4 8 10 10 11 11 9 7 6 7 9 9 8 6 5
0 0 0 0 0 0 0 0 0 0 0 0 0 0 0 0 0 0 0 0 0 0 0 0 1 1 1 0 2 5 7 8 10 11 9 6 4 4 6 7 7 5 5
0 0 0 0 0 0 0 0 0 0 0 0 0 0 0 0 0 0 0 0 0 0 0 0 0 0 0 0 0 2 3 5 7 9 6 3 1 2 4 5 6 5 4
0 0 0 0 0 0 0 0 0 0 0 0 0 0 0 0 0 0 0 0 0 0 0 0 0 0 0 0 0 0 1 1 2 3 2 1 0 1 2 3 3 3 3
0 0 0 0 0 0 0 0 0 0 0 0 0 0 0 0 0 0 0 0 0 0 0 0 0 0 0 0 0 0 0 0 0 0 0 0 0 0 1 1 1 2 2
0 0 0 0 0 0 0 0 0 0 0 0 0 0 0 0 0 0 0 0 0 0 0 0 0 0 0 0 0 0 0 0 0 0 0 0 0 0 0 0 0 1 1
0 0 0 0 0 0 0 0 0 0 0 0 0 0 0 0 0 0 0 0 0 0 0 0 0 0 0 0 0 0 0 0 0 0 0 0 0 0 0 0 0 0 0
0 0 0 0 0 0 0 0 0 0 0 0 0 0 0 0 0 0 0 0 0 0 0 0 0 0 0 0 0 0 0 0 0 0 0 0 0 0 0 0 0 0 0
0 0 0 0 0 0 0 0 0 0 0 0 0 0 0 0 0 0 0 0 0 0 0 0 0 0 0 0 0 0 0 0 0 0 0 0 0 0 0 0 0 0 0
0 0 0 0 0 0 0 0 0 0 0 0 0 0 0 0 0 0 0 0 0 0 0 0 0 0 0 0 0 0 0 0 0 0 0 0 0 0 0 0 0 0 0
0 0 0 0 0 0 0 0 0 0 0 0 0 0 0 0 0 0 0 0 0 0 0 0 0 0 0 0 0 0 0 0 0 0 0 0 0 0 0 0 0 0 0
0 0 0 0 0 0 0 0 0 0 0 0 0 0 0 0 0 0 0 0 0 0 0 0 0 0 0 0 0 0 0 0 0 0 0 0 0 0 0 0 0 0 0
0 0 0 0 0 0 0 0 0 0 0 0 0 0 0 0 0 0 0 0 0 0 0 0 0 0 0 0 0 0 0 0 0 0 0 0 0 0 0 0 0 0 0
0 0 0 0 0 0 0 0 0 0 0 0 0 0 0 0 0 0 0 0 0 0 0 0 0 0 0 0 0 0 0 0 0 0 0 0 0 0 0 0 0 0 0
0 0 0 0 0 0 0 0 0 0 0 0 0 0 0 0 0 0 0 0 0 0 0 0 0 0 0 0 0 0 0 0 0 0 0 0 0 0 0 0 0 0 0
0 0 0 0 0 0 0 0 0 0 0 0 0 0 0 0 0 0 0 0 0 0 0 0 0 0 0 0 0 0 0 0 0 0 0 0 0 0 0 0 0 0 0
0 0 0 0 0 0 0 0 0 0 0 0 0 0 0 0 0 0 0 0 0 0 0 0 0 0 0 0 0 0 0 0 0 0 0 0 0 0 0 0 0 0 0
0 0 0 0 0 0 0 0 0 0 0 0 0 0 0 0 0 0 0 0 0 0 0 0 0 0 0 0 0 0 0 0 0 0 0 0 0 0 0 0 0 0 0
0 0 0 0 0 0 0 0 0 0 0 0 0 0 0 0 0 0 0 0 0 0 0 0 0 0 0 0 0 0 0 0 0 0 0 0 0 0 0 0 0 0 0
0 0 0 0 0 0 0 0 0 0 0 0 0 0 0 0 0 0 0 0 0 0 0 0 0 0 0 0 0 0 0 0 0 0 0 0 0 0 0 0 0 0 0
0 0 0 0 0 0 0 0 0 0 0 0 0 0 0 0 0 0 0 0 0 0 0 0 0 0 0 0 0 0 0 0 0 0 0 0 0 0 0 0 0 0 0
0 0 0 0 0 0 0 0 0 0 0 0 0 0 0 0 0 0 0 0 0 0 0 0 0 0 0 0 0 0 0 0 0 0 0 0 0 0 0 0 0 0 0
0 0 0 0 0 0 0 0 0 0 0 0 0 0 0 0 0 0 0 0 0 0 0 0 0 0 0 0 0 0 0 0 0 0 0 0 0 0 0 0 0 0 0
Wind_Speed
6 7 7 7 7 7 7 8 8 8 8 8 8 7 6 6 5 4 4 4 4 4 5 6 7 7 5 5 6 6 6 5 6 4 3 4 6 7 6 6 6 7 8
6 6 7 7 7 8 8 8 8 8 8 8 8 8 7 6 6 5 5 4 4 4 4 5 6 5 7 5 5 7 6 6 6 6 4 4 5 6 6 7 6 5 5
5 6 6 7 8 8 8 8 8 8 8 8 8 8 7 7 6 6 5 4 3 3 3 3 4 5 6 5 6 6 5 5 5 5 5 4 3 4 6 5 6 5 5
4 5 6 7 7 7 8 8 8 8 8 8 8 7 7 6 6 6 5 4 3 2 2 1 1 2 4 5 5 6 5 5 5 5 5 4 4 5 6 6 5 4 4
3 5 6 6 6 7 7 7 7 7 7 8 7 7 8 7 8 9 6 4 4 3 3 3 3 3 3 2 2 4 5 5 4 4 5 5 5 5 5 5 6 5 3
3 4 4 5 6 6 7 7 7 7 7 8 8 8 8 7 11 12 9 5 4 4 3 3 2 2 2 1 1 1 2 4 5 5 5 5 6 6 5 6 6 6 4
3 3 4 4 5 6 6 7 7 6 7 7 7 7 7 9 12 11 10 6 4 4 4 3 3 2 1 1 3 4 3 2 3 4 5 5 5 6 7 7 7 6 4
2 3 3 4 4 5 5 6 6 6 6 6 6 7 6 8 12 12 11 6 4 4 4 4 3 2 3 3 0 1 2 2 2 4 3 3 3 5 7 7 6 6 6
3 3 2 3 4 4 5 5 5 6 6 5 5 6 6 6 10 11 11 4 3 3 3 4 4 3 4 4 1 1 2 3 4 3 3 3 4 5 6 6 7 7 5
3 3 3 3 3 4 4 5 4 4 5 5 4 5 5 6 8 10 11 4 3 3 3 3 5 6 5 5 1 1 2 2 3 5 5 6 6 7 6 6 7 7 6
3 4 4 4 4 4 4 4 4 4 4 4 4 4 4 5 5 8 10 5 4 3 3 3 4 6 5 4 3 2 2 1 2 3 4 4 4 4 4 4 4 4 5
4 5 5 5 4 4 4 4 4 4 5 4 4 3 3 2 4 6 8 7 8 3 3 3 3 5 4 3 2 4 2 1 2 3 3 4 4 4 4 4 4 4 2
6 6 6 6 5 5 5 5 4 4 4 4 4 3 3 2 1 1 3 4 6 3 3 5 4 4 2 1 3 1 2 2 2 3 3 3 3 4 4 4 6 6 7
7 7 7 7 7 6 4 5 5 4 4 4 4 4 3 2 2 2 3 1 1 1 1 1 1 1 1 2 2 2 1 1 1 2 3 3 3 4 4 4 5 5 5
9 8 8 7 7 6 6 5 6 5 4 5 5 4 5 4 2 4 6 5 5 4 5 3 2 2 2 2 1 1 1 2 2 2 3 4 4 4 4 4 4 4 4
9 8 7 6 6 6 6 6 9 10 7 9 10 8 6 5 4 5 6 7 6 6 6 3 3 3 3 2 2 2 2 2 3 3 3 4 4 5 4 4 4 4 4
10 9 7 7 7 7 7 7 7 8 13 14 14 14 14 9 8 8 8 7 7 7 6 4 4 3 3 3 3 3 3 3 3 3 4 4 4 5 5 5 4 4 4
10 9 8 7 7 8 8 8 7 8 7 7 11 16 15 14 12 11 8 7 7 7 7 6 5 4 4 4 4 4 4 4 4 4 4 4 5 5 5 5 5 5 5
8 7 7 7 8 8 8 8 8 9 9 8 7 8 13 13 12 11 9 8 8 7 7 7 6 6 5 5 5 5 5 5 5 5 5 5 5 5 5 5 5 5 5
7 8 8 8 8 8 8 9 9 9 9 9 9 8 7 8 8 9 10 10 9 8 8 7 7 7 6 6 6 6 6 6 7 6 6 6 6 6 6 7 6 7 6
8 7 7 8 8 8 8 9 9 9 10 10 9 9 8 9 9 10 9 10 10 10 9 8 8 8 8 7 7 8 9 7 7 7 7 7 7 7 6 6 7 7 6
8 8 8 8 8 8 8 9 9 10 10 12 10 9 11 10 10 10 10 10 10 10 9 9 9 8 8 9 9 9 9 9 9 9 8 8 8 8 8 8 7 7 7
9 10 9 9 8 9 9 9 9 10 10 11 10 10 9 10 11 11 11 11 10 10 10 10 10 9 9 10 10 10 10 10 9 9 9 9 9 9 9 9 10 9 9
10 11 11 10 9 9 9 10 10 10 11 11 11 10 10 10 11 12 12 11 11 11 11 11 12 14 16 12 10 10 11 10 10 10 13 11 10 9 9 9 10 11 10
10 10 10 10 10 10 11 11 11 11 11 11 11 11 11 11 11 11 11 11 13 12 14 13 11 14 18 20 16 13 13 13 11 9 11 11 12 12 11 11 10 10 11
10 10 10 10 10 10 11 11 11 12 12 12 12 12 11 11 11 11 11 11 11 11 13 13 15 17 18 17 20 19 16 17 17 14 11 11 12 12 12 11 13 12 12
Wind_Direction
352 353 352 355 353 353 356 354 350 349 352 351 349 347 347 345 339 331 317 307 290 270 250 236 232 227 218 208 203 206 210 214 226 214 193 194 192 198 182 198 193 184 175
351 352 355 353 355 358 359 354 352 354 354 354 353 355 355 351 347 345 338 331 319 299 269 241 231 223 217 211 207 206 204 209 215 210 189 190 199 193 185 186 186 181 174
352 351 354 360 0 0 359 356 353 356 356 358 1 2 357 353 355 353 349 345 344 328 300 260 241 227 219 210 208 204 198 201 207 202 186 181 188 182 176 175 173 163 165
348 351 357 1 359 357 1 357 356 357 357 2 4 2 1 360 0 358 358 359 2 1 346 324 284 243 235 220 207 202 196 197 200 198 185 178 178 177 174 167 164 153 155
339 350 358 357 359 357 359 358 357 357 359 5 6 6 8 8 8 359 354 356 4 10 11 25 29 18 2 300 243 206 195 192 192 193 187 180 177 176 178 168 160 144 135
329 351 357 349 359 358 358 358 360 0 2 7 6 8 10 17 6 1 350 352 0 8 10 16 48 74 82 154 211 248 226 207 196 196 195 192 190 182 171 168 158 157 153
314 339 344 349 355 359 360 1 358 1 4 4 5 6 9 19 9 6 355 342 8 13 9 13 22 36 348 119 156 179 169 181 233 229 207 203 191 182 177 174 173 167 148
301 317 332 334 345 352 356 357 354 358 1 358 360 1 4 16 9 4 344 342 12 18 11 5 6 22 18 360 11 157 148 144 199 222 215 199 183 178 177 171 155 134 116
278 294 305 318 330 337 344 347 353 350 351 350 357 354 354 13 13 359 343 358 9 23 24 21 6 22 32 342 306 140 133 117 99 86 85 114 119 142 153 153 153 150 140
261 274 285 302 310 316 330 335 340 338 338 338 348 347 350 1 14 359 343 347 5 17 26 43 40 19 18 345 305 128 127 120 135 140 136 141 144 144 160 171 165 161 147
253 262 268 272 284 298 309 312 313 323 326 332 337 338 346 357 8 10 354 346 353 358 11 24 38 22 11 360 337 38 66 88 131 130 128 128 134 143 157 162 162 166 164
241 249 257 263 270 276 282 293 301 307 305 313 321 336 337 350 2 4 357 358 341 346 358 13 41 16 7 3 32 77 88 230 144 138 132 127 126 125 122 118 112 99 88
240 247 254 257 257 263 271 278 283 284 293 307 313 318 330 335 336 263 313 340 341 336 13 21 9 355 322 132 98 115 205 189 158 153 137 121 115 120 118 110 103 95 90
247 251 251 253 254 254 255 266 273 281 286 293 302 305 309 300 311 335 325 300 263 272 304 122 192 346 346 60 151 190 210 109 168 149 134 126 124 128 132 135 133 133 122
254 252 252 252 256 261 254 252 262 264 270 278 292 293 297 298 17 358 322 326 334 347 325 282 248 226 213 196 192 171 173 165 163 153 150 148 147 145 142 145 154 164 161
263 264 259 255 249 251 257 250 225 236 232 229 244 265 272 262 278 276 283 295 302 305 290 267 250 242 240 230 216 198 192 183 172 168 169 164 162 160 156 161 175 179 165
265 267 264 260 256 251 252 258 261 232 224 233 234 235 243 255 247 253 263 275 274 269 260 255 248 240 235 232 224 216 207 193 183 184 182 178 174 172 171 172 176 176 168
270 267 264 259 258 258 257 256 258 264 257 242 223 223 229 234 237 238 242 258 247 231 246 251 245 237 230 228 223 219 211 197 197 199 193 189 185 185 182 183 183 182 175
284 276 270 266 258 257 256 255 255 256 257 259 254 217 213 222 226 228 218 236 249 245 238 239 242 238 231 227 223 217 214 209 205 204 201 197 195 194 193 194 187 171 190
301 291 283 279 270 261 256 253 252 252 253 254 252 250 215 203 221 215 211 226 237 241 240 237 234 234 231 226 221 217 215 211 209 210 206 202 202 202 200 197 193 188 198
320 312 291 277 274 272 269 263 260 256 255 255 253 247 228 228 238 239 228 224 228 233 233 232 230 226 226 223 221 218 219 215 209 209 207 203 201 202 205 203 202 202 200
333 329 322 311 301 292 287 280 274 268 263 261 261 248 208 227 243 242 239 234 230 231 231 227 226 222 219 218 219 220 219 218 213 209 209 206 204 205 205 203 203 203 203
345 341 336 329 321 312 299 292 287 282 277 272 267 263 242 233 238 241 241 239 234 229 225 223 225 223 218 217 218 220 222 219 215 211 209 207 206 207 207 207 207 207 209
352 348 345 341 338 332 324 316 308 300 293 288 282 274 266 257 252 249 246 243 237 231 225 221 222 224 220 216 215 217 221 221 216 214 214 213 210 210 209 210 212 211 213
356 354 351 349 345 341 336 331 326 320 313 304 297 291 285 278 269 262 256 250 244 238 232 226 223 225 225 220 215 215 210 206 210 212 208 214 216 214 213 213 212 212 212
356 356 354 352 350 346 342 338 335 332 327 322 315 308 301 293 286 279 271 262 253 246 241 234 230 227 225 223 221 216 203 195 198 205 211 211 214 215 213 215 214 213 213